Regional Weather Roundup
Issued by NWS

Home | Current Version | Previous Version | Text Only | Print | Product List | Glossary On
Versions: 1 2 3 4 5 6 7 8 9 10 11 12 13 14 15 16 17 18 19 20 21 22 23 24 25 26 27 28 29 30 31 32 33 34 35 36 37 38 39 40 41 42 43 44 45 46 47 48 49 50
000
ASUS43 KDMX 181906
RWRIA

WEATHER ROUNDUP FOR IOWA
NATIONAL WEATHER SERVICE DES MOINES IA
100 PM CST SUN FEB 18 2018

NOTE: "FAIR" INDICATES FEW OR NO CLOUDS BELOW 12,000 FEET WITH NO
SIGNIFICANT WEATHER AND/OR OBSTRUCTIONS TO VISIBILITY.

* - THESE STATIONS ARE NOT NWS STATIONS...THUS NOT UNDER NWS
QUALITY CONTROL.  THEY ALSO DO NOT REPORT WEATHER SUCH
AS PRECIPITATION OR FOG.

IAZ001>003-012>014-020>022-031>034-043>046-182000-
   NORTHWEST IOWA

CITY           SKY/WX    TMP DP  RH WIND       PRES   REMARKS
CARROLL *      CLOUDY    50  30  46 S36G46    29.64F
CHEROKEE *     MOSUNNY   45  32  61 S25G31    29.59F
DENISON *      CLOUDY    48  28  46 S31G48    29.64F
LE MARS *      CLOUDY    43  32  65 SW14G33   29.60R
ORANGE CITY *  CLOUDY    41  34  75 SW13G21   29.61R
SHELDON *      CLOUDY    41  30  65 S17G24    29.58F
SIOUX CITY     CLOUDY    44  31  60 S22G29    29.59F
SPENCER        CLOUDY    41  32  70 SW14G30   29.62R
STORM LAKE *   CLOUDY    43  32  65 S23G32    29.61S
$$

IAZ055>058-069>071-079>083-090>094-182000-
   SOUTHWEST IOWA

CITY           SKY/WX    TMP DP  RH WIND       PRES   REMARKS
ATLANTIC *     CLOUDY    52  25  35 S36G46    29.68F
AUDUBON *      MOSUNNY   52  25  35 S23G45    29.68F
CLARINDA *     MOSUNNY   54  27  35 S30G39    29.77F
COUNCIL BLFS * CLOUDY    54  27  35 S35G45    29.65F
CRESTON *      CLOUDY    52  27  37 S36G46    29.75F
HARLAN  *      CLOUDY    50  27  40 S31G44    29.68F
LAMONI         CLOUDY    50  26  39 S23G35    29.83F
RED OAK *      MOSUNNY   54  25  32 S32G45    29.72F
SHENANDOAH *   CLOUDY    54  27  35 S18G26    29.74F
$$

IAZ047>049-059>061-072>074-084-182000-
   CENTRAL IOWA

CITY           SKY/WX    TMP DP  RH WIND       PRES   REMARKS
AMES           CLOUDY    47  27  45 S31G45    29.75F
ANKENY *       CLOUDY    50  27  40 S18G30    29.79F
BOONE *        CLOUDY    46  32  57 S25G39    29.69F
CHARITON *     CLOUDY    50  25  37 S30G38    29.82F
DES MOINES     CLOUDY    51  26  37 S23G33    29.79F
GRINNELL*      CLOUDY    45  32  59 S21G28    29.88F
KNOXVILLE *    CLOUDY    52  21  30 S24G33    29.81F
MARSHALLTOWN   CLOUDY    46  32  58 S28G38    29.80F
NEWTON *       CLOUDY    46  30  53 S21G29    29.83F
PELLA *        CLOUDY    51  27  40 S18G26    29.85F
PERRY *        FAIR      48  29  47 S28G37    29.70F
$$

IAZ004>006-015-016-023>025-035-036-182000-
   NORTH CENTRAL IOWA

CITY           SKY/WX    TMP DP  RH WIND       PRES   REMARKS
ALGONA *       SUNNY     41 N/A N/A S29G41    29.62F
CLARION *      CLOUDY    39  39 100 S26       29.69F WCI  28
ESTHERVILLE    CLOUDY    39  32  76 SW18      29.63R WCI  30
FORT DODGE *   CLOUDY    44  29  55 S21G31    29.67F
MASON CITY     MOSUNNY   40  30  67 S28G36    29.70F WCI  29
FOREST CITY *  FAIR      39  32  75 S21G29    29.67F WCI  29
WEBSTER CITY * CLOUDY    43  28  56 S23G30    29.68F
IOWA FALLS *   FAIR      43  31  63 S25G32    29.77F
$$

IAZ007>011-017>019-026>030-037>042-050>054-066-182000-
   NORTHEAST IOWA

CITY           SKY/WX    TMP DP  RH WIND       PRES   REMARKS
CEDAR RAPIDS   FAIR      41  30  65 S24G31    29.91F
CHARLES CITY * FAIR      37  34  87 S23G35    29.79F WCI  26
CLINTON *      FAIR      35  28  75 SE18      30.04F WCI  24
DECORAH *      CLOUDY    37  28  70 S20G32    29.82F WCI  27
DUBUQUE        FAIR      33  27  78 S21G29    29.97F WCI  21
MONTICELLO *   FAIR      37  28  70 SE20G25   29.95F WCI  27
OELWEIN *      CLOUDY    39  32  75 S28       29.86F WCI  28
WATERLOO       FAIR      39  31  72 S20G30    29.84F WCI  29
$$

IAZ064-065-067-068-078-182000-
   EAST CENTRAL IOWA

CITY           SKY/WX    TMP DP  RH WIND       PRES   REMARKS
DAVENPORT      FAIR      39  28  64 SE20      30.03F WCI  29
IOWA CITY      FAIR      42  28  57 SE15G24   29.97F
MT. PLEASANT * CLOUDY    45  28  53 S25G35    29.97F
MUSCATINE *    FAIR      41  30  65 SE17G24   29.99F
QUAD CITIES    FAIR      39  30  70 S20G26    30.02F WCI  29
$$

IAZ062-063-075>077-085>089-095>099-182000-
   SOUTHEAST IOWA

CITY           SKY/WX    TMP DP  RH WIND       PRES   REMARKS
BURLINGTON     CLOUDY    46  29  51 S16G25    30.01F
FAIRFIELD *    MOSUNNY   48  27  43 S24G36    29.92F
FORT MADISON * CLOUDY    46  36  66 SE16G23   30.01F
KEOKUK *       CLOUDY    46  28  49 S15G28    29.99F
OSKALOOSA *    FAIR      44  27  51 S23G29    29.89F
OTTUMWA        MOSUNNY   50  26  39 S25G35    29.88F
WASHINGTON *   CLOUDY    45  32  61 MISG      29.94F
$$

ABBREVIATIONS USED IN REMARKS
   TC - TEMPERATURES IN CELSIUS
  WCI - WIND CHILL INDEX
   HX - HEAT INDEX
  VSB - VISIBILITY
$$





USA.gov is the U.S. government's official web portal to all federal, state and local government web resources and services.